Time,TemperatureF,DewpointF,PressureIn,WindDirection,WindDirectionDegrees,WindSpeedMPH,WindSpeedGustMPH,Humidity,HourlyPrecipIn,Conditions,Clouds,dailyrainin,SoftwareType,DateUTC
2013-04-06 00:12:00,40.0,22.0,-100.00,SSE,150,4.0,12.0,49,-99.99,,,-99.99,,2013-04-06 07:12:00,
2013-04-06 00:22:00,40.0,22.0,-100.00,SSE,150,4.0,12.0,49,-99.99,,,-99.99,,2013-04-06 07:22:00,
2013-04-06 00:32:00,40.0,22.0,-100.00,SSE,150,4.0,12.0,49,-99.99,,,-99.99,,2013-04-06 07:32:00,
2013-04-06 00:40:00,40.0,20.0,-100.00,SE,145,5.0,14.0,45,-99.99,,,-99.99,,2013-04-06 07:40:00,
2013-04-06 00:42:00,40.0,21.0,-100.00,SSE,157,4.0,14.0,47,-99.99,,,-99.99,,2013-04-06 07:42:00,
2013-04-06 00:53:00,40.0,21.0,-100.00,SSE,157,4.0,14.0,47,-99.99,,,-99.99,,2013-04-06 07:53:00,
2013-04-06 01:02:00,40.0,21.0,-100.00,SSE,157,4.0,14.0,47,-99.99,,,-99.99,,2013-04-06 08:02:00,
2013-04-06 01:12:00,40.0,20.0,-100.00,SE,145,5.0,14.0,45,-99.99,,,-99.99,,2013-04-06 08:12:00,
2013-04-06 01:22:00,40.0,20.0,-100.00,SE,145,5.0,14.0,45,-99.99,,,-99.99,,2013-04-06 08:22:00,
2013-04-06 01:32:00,40.0,20.0,-100.00,SE,145,5.0,14.0,45,-99.99,,,-99.99,,2013-04-06 08:32:00,
2013-04-06 02:33:00,41.0,17.0,-100.00,SSE,160,5.0,12.0,38,-99.99,,,-99.99,,2013-04-06 09:33:00,
2013-04-06 02:43:00,41.0,17.0,-100.00,SSE,160,5.0,12.0,38,-99.99,,,-99.99,,2013-04-06 09:43:00,
2013-04-06 02:53:00,41.0,17.0,-100.00,SSE,160,5.0,12.0,38,-99.99,,,-99.99,,2013-04-06 09:53:00,
2013-04-06 03:00:00,40.0,16.0,-100.00,SE,144,6.0,14.0,38,-99.99,,,-99.99,,2013-04-06 10:00:00,
2013-04-06 03:02:00,41.0,17.0,-100.00,SSE,162,4.0,11.0,38,-99.99,,,-99.99,,2013-04-06 10:02:00,
2013-04-06 03:12:00,41.0,17.0,-100.00,SSE,162,4.0,11.0,38,-99.99,,,-99.99,,2013-04-06 10:12:00,
2013-04-06 03:22:00,41.0,17.0,-100.00,SSE,162,4.0,11.0,38,-99.99,,,-99.99,,2013-04-06 10:22:00,
2013-04-06 03:32:00,40.0,16.0,-100.00,SE,144,6.0,14.0,38,-99.99,,,-99.99,,2013-04-06 10:32:00,
2013-04-06 03:43:00,40.0,16.0,-100.00,SE,144,6.0,14.0,38,-99.99,,,-99.99,,2013-04-06 10:43:00,
2013-04-06 03:53:00,40.0,16.0,-100.00,SE,144,6.0,14.0,38,-99.99,,,-99.99,,2013-04-06 10:53:00,
2013-04-06 04:33:00,39.0,19.0,-100.00,West,278,3.0,7.0,44,-99.99,,,-99.99,,2013-04-06 11:33:00,
2013-04-06 04:43:00,39.0,19.0,-100.00,West,278,3.0,7.0,44,-99.99,,,-99.99,,2013-04-06 11:43:00,
2013-04-06 04:52:00,39.0,19.0,-100.00,West,278,3.0,7.0,44,-99.99,,,-99.99,,2013-04-06 11:52:00,
2013-04-06 05:02:00,40.0,19.0,-100.00,West,267,3.0,9.0,43,-99.99,,,-99.99,,2013-04-06 12:02:00,
2013-04-06 05:12:00,40.0,19.0,-100.00,West,267,3.0,9.0,43,-99.99,,,-99.99,,2013-04-06 12:12:00,
2013-04-06 05:22:00,40.0,19.0,-100.00,West,267,3.0,9.0,43,-99.99,,,-99.99,,2013-04-06 12:22:00,
2013-04-06 05:32:00,41.0,19.0,-100.00,SW,219,4.0,10.0,41,-99.99,,,-99.99,,2013-04-06 12:32:00,
2013-04-06 05:44:00,41.0,19.0,-100.00,SW,219,4.0,10.0,41,-99.99,,,-99.99,,2013-04-06 12:44:00,
2013-04-06 05:52:00,41.0,19.0,-100.00,SW,219,4.0,10.0,41,-99.99,,,-99.99,,2013-04-06 12:52:00,
2013-04-06 06:02:00,40.0,19.0,-100.00,SSW,205,4.0,12.0,43,-99.99,,,-99.99,,2013-04-06 13:02:00,
2013-04-06 06:12:00,40.0,19.0,-100.00,SSW,205,4.0,12.0,43,-99.99,,,-99.99,,2013-04-06 13:12:00,
2013-04-06 06:23:00,40.0,19.0,-100.00,SSW,205,4.0,12.0,43,-99.99,,,-99.99,,2013-04-06 13:23:00,
2013-04-06 06:32:00,40.0,19.0,-100.00,SSW,199,3.0,8.0,42,-99.99,,,-99.99,,2013-04-06 13:32:00,
2013-04-06 06:43:00,40.0,19.0,-100.00,SSW,199,3.0,8.0,42,-99.99,,,-99.99,,2013-04-06 13:43:00,
2013-04-06 06:53:00,40.0,20.0,-100.00,SSW,199,5.0,12.0,44,-99.99,,,-99.99,,2013-04-06 13:53:00,
2013-04-06 07:03:00,40.0,23.0,-100.00,South,172,7.0,17.0,50,-99.99,,,-99.99,,2013-04-06 14:03:00,
2013-04-06 07:12:00,40.0,23.0,-100.00,South,172,7.0,17.0,50,-99.99,,,-99.99,,2013-04-06 14:12:00,
2013-04-06 07:22:00,40.0,23.0,-100.00,South,172,7.0,17.0,50,-99.99,,,-99.99,,2013-04-06 14:22:00,
2013-04-06 07:32:00,37.0,25.0,-100.00,SSE,158,3.0,8.0,62,-99.99,,,-99.99,,2013-04-06 14:32:00,
2013-04-06 07:43:00,37.0,25.0,-100.00,SSE,158,3.0,8.0,62,-99.99,,,-99.99,,2013-04-06 14:43:00,
2013-04-06 07:53:00,37.0,25.0,-100.00,SSE,158,3.0,8.0,62,-99.99,,,-99.99,,2013-04-06 14:53:00,
2013-04-06 08:02:00,38.0,23.0,-100.00,SSW,195,4.0,8.0,55,-99.99,,,-99.99,,2013-04-06 15:02:00,
2013-04-06 08:12:00,38.0,23.0,-100.00,SSW,195,4.0,8.0,55,-99.99,,,-99.99,,2013-04-06 15:12:00,
2013-04-06 08:22:00,38.0,23.0,-100.00,SSW,195,4.0,8.0,55,-99.99,,,-99.99,,2013-04-06 15:22:00,
2013-04-06 08:33:00,39.0,24.0,-100.00,SSE,154,5.0,17.0,55,-99.99,,,-99.99,,2013-04-06 15:33:00,
2013-04-06 08:43:00,39.0,24.0,-100.00,SSE,154,5.0,17.0,55,-99.99,,,-99.99,,2013-04-06 15:43:00,
2013-04-06 08:53:00,39.0,24.0,-100.00,SSE,154,5.0,17.0,55,-99.99,,,-99.99,,2013-04-06 15:53:00,
2013-04-06 09:04:00,39.0,25.0,-100.00,SSE,165,7.0,14.0,58,-99.99,,,-99.99,,2013-04-06 16:04:00,
2013-04-06 09:17:00,39.0,25.0,-100.00,SSE,165,7.0,14.0,58,-99.99,,,-99.99,,2013-04-06 16:17:00,
2013-04-06 09:23:00,39.0,25.0,-100.00,SSE,165,7.0,14.0,58,-99.99,,,-99.99,,2013-04-06 16:23:00,
2013-04-06 09:32:00,40.0,27.0,-100.00,South,171,6.0,15.0,59,-99.99,,,-99.99,,2013-04-06 16:32:00,
2013-04-06 09:43:00,40.0,27.0,-100.00,South,171,6.0,15.0,59,-99.99,,,-99.99,,2013-04-06 16:43:00,
2013-04-06 09:53:00,40.0,27.0,-100.00,South,171,6.0,15.0,59,-99.99,,,-99.99,,2013-04-06 16:53:00,
2013-04-06 10:02:00,41.0,27.0,-100.00,SSE,154,6.0,15.0,56,-99.99,,,-99.99,,2013-04-06 17:02:00,
2013-04-06 10:12:00,41.0,27.0,-100.00,SSE,154,6.0,15.0,56,-99.99,,,-99.99,,2013-04-06 17:12:00,
2013-04-06 10:22:00,43.0,28.0,-100.00,SSE,157,6.0,11.0,55,-99.99,,,-99.99,,2013-04-06 17:22:00,
2013-04-06 10:32:00,42.0,28.0,-100.00,South,175,8.0,17.0,57,-99.99,,,-99.99,,2013-04-06 17:32:00,
2013-04-06 10:42:00,42.0,28.0,-100.00,South,175,8.0,17.0,57,-99.99,,,-99.99,,2013-04-06 17:42:00,
2013-04-06 10:52:00,42.0,28.0,-100.00,South,175,8.0,17.0,57,-99.99,,,-99.99,,2013-04-06 17:52:00,
2013-04-06 11:02:00,44.0,28.0,-100.00,SE,145,7.0,15.0,54,-99.99,,,-99.99,,2013-04-06 18:02:00,
2013-04-06 11:12:00,44.0,28.0,-100.00,SE,145,7.0,15.0,54,-99.99,,,-99.99,,2013-04-06 18:12:00,
2013-04-06 11:23:00,44.0,28.0,-100.00,SE,145,7.0,15.0,54,-99.99,,,-99.99,,2013-04-06 18:23:00,
2013-04-06 11:32:00,46.0,28.0,-100.00,SSE,158,5.0,14.0,50,-99.99,,,-99.99,,2013-04-06 18:32:00,
2013-04-06 11:43:00,46.0,28.0,-100.00,SSE,158,5.0,14.0,50,-99.99,,,-99.99,,2013-04-06 18:43:00,
2013-04-06 11:52:00,46.0,28.0,-100.00,SSE,158,5.0,14.0,50,-99.99,,,-99.99,,2013-04-06 18:52:00,
2013-04-06 12:02:00,45.0,29.0,-100.00,WSW,237,8.0,15.0,53,-99.99,,,-99.99,,2013-04-06 19:02:00,
2013-04-06 12:12:00,45.0,29.0,-100.00,WSW,237,8.0,15.0,53,-99.99,,,-99.99,,2013-04-06 19:12:00,
2013-04-06 12:22:00,45.0,29.0,-100.00,WSW,237,8.0,15.0,53,-99.99,,,-99.99,,2013-04-06 19:22:00,
2013-04-06 12:30:00,47.0,32.0,-100.00,WSW,251,10.0,18.0,56,-99.99,,,-99.99,,2013-04-06 19:30:00,
2013-04-06 12:32:00,47.0,30.0,-100.00,WSW,244,10.0,17.0,52,-99.99,,,-99.99,,2013-04-06 19:32:00,
2013-04-06 12:42:00,47.0,30.0,-100.00,WSW,244,10.0,17.0,52,-99.99,,,-99.99,,2013-04-06 19:42:00,
2013-04-06 12:53:00,47.0,30.0,-100.00,WSW,244,10.0,17.0,52,-99.99,,,-99.99,,2013-04-06 19:53:00,
2013-04-06 13:02:00,47.0,32.0,-100.00,WSW,251,10.0,18.0,56,-99.99,,,-99.99,,2013-04-06 20:02:00,
2013-04-06 13:12:00,47.0,32.0,-100.00,WSW,251,10.0,18.0,56,-99.99,,,-99.99,,2013-04-06 20:12:00,
2013-04-06 13:22:00,47.0,32.0,-100.00,WSW,251,10.0,18.0,56,-99.99,,,-99.99,,2013-04-06 20:22:00,
2013-04-06 14:02:00,48.0,29.0,-100.00,SW,217,10.0,19.0,47,-99.99,,,-99.99,,2013-04-06 21:02:00,
2013-04-06 14:13:00,48.0,29.0,-100.00,SW,217,10.0,19.0,47,-99.99,,,-99.99,,2013-04-06 21:13:00,
2013-04-06 14:22:00,48.0,29.0,-100.00,SW,217,10.0,19.0,47,-99.99,,,-99.99,,2013-04-06 21:22:00,
2013-04-06 14:33:00,48.0,30.0,-100.00,SSW,206,9.0,18.0,50,-99.99,,,-99.99,,2013-04-06 21:33:00,
2013-04-06 14:43:00,48.0,30.0,-100.00,SSW,206,9.0,18.0,50,-99.99,,,-99.99,,2013-04-06 21:43:00,
2013-04-06 14:53:00,48.0,30.0,-100.00,SSW,206,9.0,18.0,50,-99.99,,,-99.99,,2013-04-06 21:53:00,
2013-04-06 15:02:00,49.0,29.0,-100.00,SSW,203,9.0,20.0,45,-99.99,,,-99.99,,2013-04-06 22:02:00,
2013-04-06 15:13:00,49.0,29.0,-100.00,SSW,203,9.0,20.0,45,-99.99,,,-99.99,,2013-04-06 22:13:00,
2013-04-06 15:22:00,50.0,27.0,-100.00,SSW,209,10.0,20.0,41,-99.99,,,-99.99,,2013-04-06 22:22:00,
2013-04-06 15:33:00,50.0,27.0,-100.00,SSW,198,10.0,22.0,40,-99.99,,,-99.99,,2013-04-06 22:33:00,
2013-04-06 15:43:00,50.0,27.0,-100.00,SSW,198,10.0,22.0,40,-99.99,,,-99.99,,2013-04-06 22:43:00,
2013-04-06 15:53:00,51.0,26.0,-100.00,SSW,192,9.0,20.0,38,-99.99,,,-99.99,,2013-04-06 22:53:00,
2013-04-06 16:03:00,50.0,25.0,-100.00,SSW,202,9.0,17.0,38,-99.99,,,-99.99,,2013-04-06 23:03:00,
2013-04-06 16:13:00,50.0,25.0,-100.00,SSW,202,9.0,17.0,38,-99.99,,,-99.99,,2013-04-06 23:13:00,
2013-04-06 16:22:00,50.0,25.0,-100.00,SSW,202,9.0,17.0,38,-99.99,,,-99.99,,2013-04-06 23:22:00,
2013-04-06 16:33:00,50.0,27.0,-100.00,SSW,199,9.0,16.0,41,-99.99,,,-99.99,,2013-04-06 23:33:00,
2013-04-06 16:43:00,50.0,27.0,-100.00,SSW,199,9.0,16.0,41,-99.99,,,-99.99,,2013-04-06 23:43:00,
2013-04-06 16:53:00,50.0,27.0,-100.00,SSW,203,10.0,20.0,40,-99.99,,,-99.99,,2013-04-06 23:53:00,
2013-04-06 17:02:00,50.0,27.0,-100.00,SSW,203,10.0,20.0,40,-99.99,,,-99.99,,2013-04-07 00:02:00,
2013-04-06 17:12:00,50.0,27.0,-100.00,SSW,203,10.0,20.0,40,-99.99,,,-99.99,,2013-04-07 00:12:00,
2013-04-06 18:02:00,48.0,30.0,-100.00,SW,227,9.0,18.0,49,-99.99,,,-99.99,,2013-04-07 01:02:00,
2013-04-06 18:12:00,48.0,30.0,-100.00,SW,227,9.0,18.0,49,-99.99,,,-99.99,,2013-04-07 01:12:00,
2013-04-06 18:22:00,48.0,30.0,-100.00,SW,227,9.0,18.0,49,-99.99,,,-99.99,,2013-04-07 01:22:00,
2013-04-06 18:32:00,46.0,27.0,-100.00,SSW,210,8.0,14.0,47,-99.99,,,-99.99,,2013-04-07 01:32:00,
2013-04-06 18:43:00,46.0,27.0,-100.00,SSW,210,8.0,14.0,47,-99.99,,,-99.99,,2013-04-07 01:43:00,
2013-04-06 18:53:00,46.0,27.0,-100.00,SSW,210,8.0,14.0,47,-99.99,,,-99.99,,2013-04-07 01:53:00,
2013-04-06 19:02:00,46.0,31.0,-100.00,South,176,7.0,18.0,55,-99.99,,,-99.99,,2013-04-07 02:02:00,
2013-04-06 19:12:00,46.0,31.0,-100.00,South,176,7.0,18.0,55,-99.99,,,-99.99,,2013-04-07 02:12:00,
2013-04-06 19:22:00,46.0,31.0,-100.00,South,176,7.0,18.0,55,-99.99,,,-99.99,,2013-04-07 02:22:00,
2013-04-06 19:30:00,43.0,31.0,-100.00,SSE,161,7.0,19.0,62,-99.99,,,-99.99,,2013-04-07 02:30:00,
2013-04-06 19:32:00,44.0,31.0,-100.00,SSE,168,7.0,17.0,61,-99.99,,,-99.99,,2013-04-07 02:32:00,
2013-04-06 19:43:00,44.0,31.0,-100.00,SSE,168,7.0,17.0,61,-99.99,,,-99.99,,2013-04-07 02:43:00,
2013-04-06 19:52:00,44.0,31.0,-100.00,SSE,168,7.0,17.0,61,-99.99,,,-99.99,,2013-04-07 02:52:00,
2013-04-06 20:02:00,43.0,31.0,-100.00,SSE,161,7.0,19.0,62,-99.99,,,-99.99,,2013-04-07 03:02:00,
2013-04-06 20:12:00,43.0,31.0,-100.00,SSE,161,7.0,19.0,62,-99.99,,,-99.99,,2013-04-07 03:12:00,
2013-04-06 20:22:00,43.0,31.0,-100.00,SSE,161,7.0,19.0,62,-99.99,,,-99.99,,2013-04-07 03:22:00,
2013-04-06 20:54:00,42.0,30.0,-100.00,SSE,158,6.0,16.0,63,-99.99,,,-99.99,,2013-04-07 03:54:00,
2013-04-06 21:03:00,42.0,30.0,-100.00,SSE,158,6.0,16.0,63,-99.99,,,-99.99,,2013-04-07 04:03:00,
2013-04-06 21:13:00,42.0,30.0,-100.00,SSE,158,6.0,16.0,63,-99.99,,,-99.99,,2013-04-07 04:13:00,
2013-04-06 21:32:00,42.0,30.0,-100.00,South,176,6.0,16.0,62,-99.99,,,-99.99,,2013-04-07 04:32:00,
2013-04-06 21:43:00,42.0,30.0,-100.00,South,176,6.0,16.0,62,-99.99,,,-99.99,,2013-04-07 04:43:00,
2013-04-06 21:53:00,41.0,29.0,-100.00,SSE,168,5.0,13.0,61,-99.99,,,-99.99,,2013-04-07 04:53:00,
2013-04-06 22:00:00,41.0,29.0,-100.00,South,176,7.0,18.0,61,-99.99,,,-99.99,,2013-04-07 05:00:00,
2013-04-06 22:02:00,41.0,29.0,-100.00,SSE,168,5.0,13.0,61,-99.99,,,-99.99,,2013-04-07 05:02:00,
2013-04-06 22:12:00,41.0,29.0,-100.00,SSE,168,5.0,13.0,61,-99.99,,,-99.99,,2013-04-07 05:12:00,
2013-04-06 22:34:00,41.0,29.0,-100.00,South,176,7.0,18.0,61,-99.99,,,-99.99,,2013-04-07 05:34:00,
2013-04-06 22:43:00,41.0,29.0,-100.00,South,176,7.0,18.0,61,-99.99,,,-99.99,,2013-04-07 05:43:00,
2013-04-06 22:52:00,41.0,29.0,-100.00,South,176,7.0,18.0,61,-99.99,,,-99.99,,2013-04-07 05:52:00,
2013-04-06 23:00:00,41.0,29.0,-100.00,SSE,167,5.0,13.0,61,-99.99,,,-99.99,,2013-04-07 06:00:00,
2013-04-06 23:22:00,41.0,31.0,-100.00,SSE,162,7.0,17.0,66,-99.99,,,-99.99,,2013-04-07 06:22:00,
2013-04-06 23:32:00,41.0,29.0,-100.00,SSE,167,5.0,13.0,61,-99.99,,,-99.99,,2013-04-07 06:32:00,
2013-04-06 23:42:00,41.0,29.0,-100.00,SSE,167,5.0,13.0,61,-99.99,,,-99.99,,2013-04-07 06:42:00,
2013-04-06 23:52:00,41.0,29.0,-100.00,SSE,167,5.0,13.0,61,-99.99,,,-99.99,,2013-04-07 06:52:00,